User: anonymous   Login
Location: Saddleback Butte
(34.6776°N, 117.8050°W)
Time: 17:33:52
(UTC-07:00)
Language:

Cosmos 1862 Rocket - Orbit

View from above orbital plane
View from above orbital plane
View from above satellite
View from above satellite

Ground track
Ground track

The orbit data is extracted from the following two-line orbital elements,

1 18153U 87055B   16211.92559586 +.00000091 +00000-0 +81944-5 0  9994
2 18153 082.4985 047.0266 0023080 066.7700 293.5941 14.83124905549514
Epoch (UTC): 29 July 2016 22:12:51
Eccentricity: 0.0023080
inclination: 82.4985°
perigee height: 603 km
apogee height: 635 km
right ascension of ascending node: 47.0266°
argument of perigee: 66.7700°
revolutions per day: 14.83124905
mean anomaly at epoch: 293.5941°
orbit number at epoch: 54951

The dashed part of the orbit path shows where the satellite is in the earth's shadow,  

DLR